Simultaneous Nadir Overpasses (SNOs) Predictions

Prediction of SNOs between GOES-14 and AQUA Satellite Orbit:

Table of predicted SNOs for the next 14.0 days since TLE Epoch: 5/27/2023
Index Date Time (GOES-14) GOES-14 Lat,Lon AQUA Lat,Lon Distance(km) Time Diff (sec)
1 05/27/2023 08:52:23 0.08,-108.58 -0.40,-106.29 260.29 80
2 05/27/2023 21:13:19 -0.05,-108.52 -0.65,-111.37 323.30 80
3 05/29/2023 21:01:57 -0.06,-108.54 0.10,-107.95 68.69 80
4 05/30/2023 09:21:02 0.03,-108.63 0.97,-112.98 495.55 22
5 05/31/2023 20:47:54 -0.06,-108.57 0.81,-104.52 460.63 80
6 06/01/2023 09:06:01 0.04,-108.64 0.25,-109.55 103.99 80
7 06/03/2023 08:51:58 0.04,-108.65 -0.49,-106.13 287.23 80
8 06/03/2023 21:12:53 -0.01,-108.58 -0.60,-111.19 298.07 80
9 06/05/2023 21:01:30 -0.01,-108.58 0.18,-107.77 92.89 80
10 06/06/2023 09:19:36 -0.01,-108.67 0.87,-112.81 470.22 80
11 06/07/2023 20:47:26 -0.02,-108.59 0.91,-104.34 484.04 80
12 06/08/2023 09:05:33 -0.00,-108.68 0.13,-109.38 79.36 80
